Weather History for Colorado City, AZ

Change the Weather History Date:

Tuesday, October 29, 2013

  Actual Average (KCDC) Record (KCDC)
Temperature  
Mean Temperature 44 °F 45 °F  
Max Temperature 51 °F 60 °F 77 °F (2008)
Min Temperature 36 °F 30 °F 7 °F (1971)
Degree Days  
Heating Degree Days 22 20  
Month to date heating degree days 434  
Since 1 July heating degree days 577  
Cooling Degree Days 0 0  
Month to date cooling degree days 0  
Year to date cooling degree days 588  
Moisture  
Dew Point 37 °F    
Average Humidity 76    
Maximum Humidity 100    
Minimum Humidity 51    
Precipitation  
Precipitation 0.00 in 0.05 in 0.70 in (1972)
Month to date precipitation 1.25  
Year to date precipitation 9.45  
Sea Level Pressure  
Sea Level Pressure 29.94 in    
Wind  
Wind Speed 4 mph (WNW)    
Max Wind Speed 16 mph    
Max Gust Speed 26 mph    
Visibility 10 miles    
Events Rain    
T = Trace of Precipitation, MM = Missing Value Source: NWS Daily Summary

Daily Weather History Graph

Daily Weather History Graph

Search for Another Location

Airport:

Trip Planner

Search our weather history database for the weather conditions in past years. The results will help you decide how hot, cold, wet, or windy it might be!

Date:

Astronomy

Oct. 29, 2013 Rise Set
Actual Time 6:53 AM MST 5:37 PM MST
Civil Twilight 6:26 AM MST 6:04 PM MST
Nautical Twilight 5:56 AM MST 6:34 PM MST
Astronomical Twilight 5:25 AM MST 7:05 PM MST
Moon 1:54 AM MST (10/29) 2:47 PM MST (10/29)
Length of Visible Light 11h 37m
Length of Day
10h 44m
Waning Crescent, 24% of the Moon is Illuminated
Oct 29
Waning Crescent
Nov 3
New
Nov 9
First Quarter
Nov 17
Full
Nov 25
Last Quarter

Hourly Weather History & Observations

Time (MST) Temp. Windchill Dew Point Humidity Pressure Visibility Wind Dir Wind Speed Gust Speed Precip Events Conditions
12:15 AM 42.1 °F 40.2 °F 38.5 °F 87% 29.85 in 10.0 mi North 3.5 mph - N/A   Scattered Clouds
12:35 AM 41.5 °F 39.6 °F 38.5 °F 89% 29.86 in 10.0 mi WNW 3.5 mph - N/A   Mostly Cloudy
12:55 AM 40.8 °F 38.8 °F 39.2 °F 94% 29.87 in 10.0 mi West 3.5 mph - N/A   Mostly Cloudy
1:15 AM 41.2 °F 36.6 °F 39.6 °F 94% 29.87 in 10.0 mi WNW 6.9 mph - N/A   Overcast
1:35 AM 41.5 °F 37.1 °F 39.4 °F 92% 29.87 in 10.0 mi NW 6.9 mph - N/A   Mostly Cloudy
1:55 AM 40.5 °F 36.5 °F 39.0 °F 95% 29.87 in 10.0 mi NNW 5.8 mph - N/A   Scattered Clouds
2:15 AM 40.3 °F 38.2 °F 39.0 °F 95% 29.87 in 10.0 mi NNW 3.5 mph - N/A   Mostly Cloudy
3:15 AM 41.0 °F - 39.6 °F 95% 29.87 in 10.0 mi Calm Calm - N/A   Overcast
6:55 AM 36.9 °F 34.3 °F 36.7 °F 99% 29.93 in 10.0 mi SE 3.5 mph - N/A   Scattered Clouds
7:35 AM 36.9 °F - 36.7 °F 99% 29.94 in 10.0 mi Calm Calm - N/A   Scattered Clouds
7:55 AM 37.2 °F - 37.2 °F 100% 29.94 in 10.0 mi Calm Calm - N/A   Scattered Clouds
8:15 AM 39.6 °F - 39.0 °F 98% 29.96 in 10.0 mi Calm Calm - N/A   Mostly Cloudy
8:35 AM 41.0 °F - 39.9 °F 96% 29.96 in 10.0 mi Calm Calm - N/A   Overcast
8:55 AM 42.8 °F - 40.6 °F 92% 29.96 in 10.0 mi Calm Calm - N/A   Overcast
9:15 AM 45.0 °F - 39.2 °F 80% 29.96 in 10.0 mi Calm Calm - N/A   Scattered Clouds
9:35 AM 46.4 °F - 38.5 °F 74% 29.96 in 10.0 mi Calm Calm - N/A   Clear
9:55 AM 48.0 °F - 37.8 °F 68% 29.96 in 10.0 mi South 4.6 mph - N/A   Scattered Clouds
10:15 AM 49.3 °F - 37.9 °F 65% 29.96 in 10.0 mi Calm Calm - N/A   Mostly Cloudy
10:35 AM 49.3 °F - 36.9 °F 62% 29.96 in 10.0 mi WSW 5.8 mph - N/A   Mostly Cloudy
10:55 AM 47.7 °F - 36.7 °F 66% 29.96 in 10.0 mi SSW 5.8 mph - N/A   Overcast
11:15 AM 47.5 °F - 36.1 °F 65% 29.96 in 10.0 mi SW 6.9 mph - N/A Rain Light Rain
11:35 AM 48.7 °F - 35.6 °F 60% 29.95 in 10.0 mi WSW 4.6 mph - N/A   Overcast
11:55 AM 49.3 °F - 35.4 °F 59% 29.94 in 10.0 mi West 6.9 mph - N/A   Overcast
12:15 PM 49.3 °F - 35.2 °F 58% 29.93 in 10.0 mi WNW 6.9 mph - N/A   Overcast
12:35 PM 50.0 °F - 34.2 °F 55% 29.92 in 10.0 mi SW 9.2 mph - N/A   Overcast
12:55 PM 50.7 °F - 33.1 °F 51% 29.91 in 10.0 mi West 9.2 mph - N/A   Mostly Cloudy
1:15 PM 51.8 °F - 34.3 °F 51% 29.91 in 10.0 mi West 10.4 mph 20.7 mph N/A   Mostly Cloudy
1:35 PM 51.4 °F - 34.5 °F 52% 29.91 in 10.0 mi WSW 9.2 mph - N/A   Overcast
1:55 PM 49.8 °F - 34.2 °F 55% 29.90 in 10.0 mi West 3.5 mph - N/A   Overcast
2:15 PM 48.4 °F - 34.3 °F 58% 29.92 in 10.0 mi SSW 16.1 mph - N/A   Overcast
2:35 PM 46.0 °F 41.4 °F 34.0 °F 63% 29.91 in 10.0 mi South 9.2 mph 26.5 mph N/A Rain Light Rain
2:55 PM 44.6 °F 42.2 °F 35.6 °F 71% 29.90 in 10.0 mi East 4.6 mph - N/A Rain Light Rain
3:15 PM 46.4 °F - 36.5 °F 68% 29.90 in 10.0 mi Calm Calm - N/A   Overcast
3:35 PM 48.0 °F - 34.9 °F 60% 29.90 in 10.0 mi Calm Calm - N/A   Mostly Cloudy
3:55 PM 48.4 °F - 34.5 °F 59% 29.90 in 10.0 mi Calm Calm - N/A   Mostly Cloudy
4:15 PM 49.8 °F - 33.8 °F 54% 29.90 in 10.0 mi North 5.8 mph - N/A   Scattered Clouds
4:35 PM 49.6 °F - 34.2 °F 55% 29.90 in 10.0 mi NNW 4.6 mph - N/A   Scattered Clouds
4:55 PM 49.3 °F - 34.5 °F 57% 29.91 in 10.0 mi NW 9.2 mph - N/A   Scattered Clouds
5:15 PM 48.2 °F - 34.7 °F 60% 29.92 in 10.0 mi WNW 6.9 mph - N/A   Scattered Clouds
5:35 PM 46.4 °F 44.3 °F 35.6 °F 66% 29.92 in 10.0 mi NNW 4.6 mph - N/A   Clear
5:55 PM 44.6 °F 41.4 °F 36.1 °F 72% 29.92 in 10.0 mi North 5.8 mph - N/A   Clear
6:15 PM 43.7 °F 42.1 °F 36.3 °F 75% 29.93 in 10.0 mi North 3.5 mph - N/A   Clear
6:35 PM 43.2 °F 41.5 °F 35.6 °F 75% 29.94 in 10.0 mi NNE 3.5 mph - N/A   Scattered Clouds
6:55 PM 42.3 °F - 35.6 °F 77% 29.94 in 10.0 mi Calm Calm - N/A   Scattered Clouds
7:15 PM 41.2 °F - 36.3 °F 83% 29.96 in 10.0 mi Calm Calm - N/A   Mostly Cloudy
7:35 PM 40.3 °F - 36.5 °F 86% 29.96 in 10.0 mi Calm Calm - N/A   Overcast
7:55 PM 39.7 °F - 37.0 °F 90% 29.96 in 10.0 mi Calm Calm - N/A   Overcast
8:15 PM 40.8 °F - 37.9 °F 89% 29.97 in 10.0 mi Calm Calm - N/A   Overcast
8:35 PM 43.0 °F 38.8 °F 36.3 °F 77% 29.97 in 10.0 mi West 6.9 mph - N/A   Overcast
8:55 PM 45.0 °F 41.8 °F 34.3 °F 66% 29.99 in 10.0 mi West 5.8 mph 9.2 mph N/A   Light Drizzle
9:15 PM 43.9 °F 38.8 °F 35.8 °F 73% 29.99 in 10.0 mi NW 9.2 mph - N/A   Overcast
9:35 PM 43.0 °F 40.3 °F 36.0 °F 76% 30.00 in 10.0 mi NNW 4.6 mph - N/A   Overcast
9:55 PM 42.1 °F - 36.9 °F 82% 30.00 in 10.0 mi Calm Calm - N/A   Overcast
10:15 PM 41.9 °F 38.2 °F 37.2 °F 83% 30.00 in 10.0 mi NW 5.8 mph - N/A Rain Light Rain
10:35 PM 41.5 °F - 37.0 °F 84% 30.00 in 10.0 mi Calm Calm - N/A   Scattered Clouds
10:55 PM 40.6 °F 37.5 °F 37.0 °F 87% 30.00 in 10.0 mi NW 4.6 mph - N/A   Clear
11:15 PM 40.3 °F 38.2 °F 37.0 °F 88% 30.00 in 10.0 mi NW 3.5 mph - N/A   Clear
11:35 PM 39.9 °F 37.8 °F 37.4 °F 91% 30.00 in 10.0 mi NW 3.5 mph - N/A   Clear
11:55 PM 40.1 °F - 37.4 °F 90% 30.00 in 10.0 mi Calm Calm - N/A   Scattered Clouds